DELTA 1 DEB, 10708

Orbit data source: Space-Track

DELTA 1 DEB, 10708 is space debris in SSO originally from a launch on Thu, 29 Jul 1976 UTC launched from the Air Force Western Test Range (AFWTR). Debris objects in space refer to the collection of defunct objects orbiting the Earth. Examples of debris include non-operational satellites, rocket bodies, and fragments generated from explosions, collisions, or faulty payload assembly.

Loading next visibility...
Identifier
10708, 1976-077AD
Orbit
SSO
Country
Flag of USUS
Related business
Manufacturer
Unknown
Mission
Spacecraft
Bus & Motor
Unknown
Mass
Unknown
Launch date (UTC)
1976-07-29 (49 years ago)
Launch vehicle
Unknown
Launch site
Air Force Western Test Range (AFWTR)
Object type
Payload
Rocket body
Debris
Shape & HBR
Unknown shape, 0.1 m
Radar Cross Section
Small (<0.1 m²)

Expand to show TLE details & history
Last TLE update: 1 day ago

TLE from 1 day ago
0 DELTA 1 DEB
1 10708U 76077AD  25302.00634692  .00000515  00000-0  29199-2 0  9998
2 10708 101.2124 311.9746 0162553 104.5846 313.1351 12.63240400258655
Epoch: 2025-10-29T00:09Z
TLE epoch observation values (Epoch: 2025-10-29T00:09:08.373Z)
Latitude
54.82868°
Longitude
-104.15035°
Altitude
1,333.028 km
Speed
7.236 km/s
True Right ascension
19h 42m 52s
True Declination
54° 40' 43"
Sunlit
Object was in daylight at epoch
Visualization orbit readout
Latitude
Unknown
Longitude
Unknown
Altitude
Unknown
Speed
Unknown
Apparent Right ascension
Unknown
Apparent Declination
Unknown
Sunlit
N/A
Visualization observer readout
Local Sidereal Time
20:41:13
Azimuth
Unknown
Elevation
Unknown
Doppler factor
Unknown
Orbital elements
Apogee altitude
1,533.647 km
Perigee altitude
1,280.544 km
Semi-major axis
7,785.233 km
Eccentricity
0.01626
Inclination
101.2124°
RAAN
311.9746°
Arg. of periapsis
104.5846°
True anomaly
311.75679°
Mean anomaly
313.1351°
Eccentric anomaly
312.44786°
Mean motion
3.15963 °/min
Orbital period
113.94 mins
BSTAR
0.0029199
Loading maneuver chart data...
Computing Atmospheric mass density...
Loading historical data...
Loading historical data...
Loading historical data...
Loading historical data...
Loading historical data...
Loading historical data...
Loading historical data...

Documentation

Showing up to 5 results
|